STARLINK-32775, 62742

Orbit data source: Space-Track

STARLINK-32775, 62742 is a payload satellite owned by SpaceX/Seattle (US) in LEO that was launched on Tue, 21 Jan 2025 UTC via an FALCON 9 launch vehicle from the Air Force Eastern Test Range (AFETR). Payload-class satellites include a variety of spacecraft equipped with specific instruments for various scientific and technological missions. These include communications satellites like Starlink; space stations such as the ISS; scientific satellites like the Hubble; Earth observation satellites from companies like Planet Labs, Umbra, and HawkEye 360; GPS; miniature CubeSats for education and research; and military/defense satellites.

Loading next visibility...
Identifier
62742, 2025-014H
Orbit
LEO
Country
Flag of USUS
Related business
Manufacturer
SpaceX/Seattle
Mission
Operational Commercial Communications
Bus & Motor
STARLINK V2M, Unknown motor
Mass
730 kg wet, ~700 kg dry
Launch date (UTC)
2025-01-21 (11 months ago)
Launch vehicle
FALCON 9
Launch site
Air Force Eastern Test Range (AFETR)
Object type
Payload
Rocket body
Debris
Shape & HBR
Box + 2 Pan, 17.7 m
Radar Cross Section
33.884 m², Large (>1 m²)

Expand to show TLE details & history
Last TLE update: 18 hours ago

TLE from 18 hours ago
0 STARLINK-32775
1 62742U 25014H   25348.85465553  .00014316  00000-0  52895-3 0  9993
2 62742  43.0012 273.4371 0000907 257.3159 102.7591 15.27566788 50283
Epoch: 2025-12-14T20:30Z
TLE epoch observation values (Epoch: 2025-12-14T20:30:42.237Z)
Latitude
-0.00005°
Longitude
-118.00054°
Altitude
483.002 km
Speed
7.626 km/s
True Right ascension
18h 13m 44s
True Declination
0° 00' 00"
Sunlit
Object was in daylight at epoch
Visualization orbit readout
Latitude
Unknown
Longitude
Unknown
Altitude
Unknown
Speed
Unknown
Apparent Right ascension
Unknown
Apparent Declination
Unknown
Sunlit
N/A
Visualization observer readout
Local Sidereal Time
13:24:44
Azimuth
Unknown
Elevation
Unknown
Doppler factor
Unknown
Orbital elements
Apogee altitude
485.656 km
Perigee altitude
484.411 km
Semi-major axis
6,863.171 km
Eccentricity
0.00009
Inclination
43.0012°
RAAN
273.4371°
Arg. of periapsis
257.3159°
True anomaly
102.76924°
Mean anomaly
102.7591°
Eccentric anomaly
102.76417°
Mean motion
3.8173 °/min
Orbital period
94.31 mins
BSTAR
0.00052895
Loading maneuver chart data...
Computing Atmospheric mass density...
Loading historical data...
Loading historical data...
Loading historical data...
Loading historical data...
Loading historical data...
Loading historical data...
Loading historical data...

Documentation

Showing up to 5 results
|